www.pogodaiklimat.ru

Погода и климат >> Архив погоды >> Россия >> Крым >> Симферополь


АРХИВ ПОГОДЫ в Симферополе

Время (UTC), дата Ветер
(напр.,м/с)
 
Видим.   Явления Облачность Т
(С)
Тd
(С)
f
(%)
Тe
(С)
Тes
(С)
Комфортность P
(гПа)
Po
(гПа)
Тmin
(С)
Tmax
(С)
R
(мм)
R24
(мм)
S
(см)
18 11.06 В 4
{10}
10 км 8/0
[Ac trans Ci fib]
+20.7 +7.0 41 +22 +22 комфорт 1011.6 990.6 +29.5
21 11.06 В 3 10 км 4/0
[Ci fib]
+17.4 +4.7 43 +17 +17 тепло 1012.1 990.9
00 12.06 В 3 10 км ясно +14.6 +3.1 46 +14 +14 по сезону 1011.7 990.3
03 12.06 В 3 10 км 4/0
[Ac trans Ci fib]
+14.2 +6.6 60 +13 +14 прохладно 1011.1 989.7 +13.0
06 12.06 В 5 10 км 3/0
[Ci fib]
+23.6 +9.2 40 +24 +29 комфорт 1010.7 990.0 +13.0
09 12.06 СВ 4 10 км 3/0
[Ci fib]
+27.0 +5.9 26 +26 +38 жарко 1010.0 989.5
12 12.06 З 7 10 км 8/0
[Ci fib]
+27.9 +8.7 30 +28 +31 жарко 1009.2 988.8
15 12.06 З 6
{10}
10 км 4/0
[Ci fib]
+25.2 +8.2 34 +26 +27 жарко 1009.1 988.5
18 12.06 ЮЗ 3 10 км 5/0
[Ci fib]
+19.4 +10.1 55 +21 +21 комфорт 1009.3 988.3 +29.7
21 12.06 Ю 3 10 км 6/0
[Ci fib]
+16.8 +10.6 67 +17 +17 по сезону 1009.5 988.3
00 13.06 ЮВ 2 10 км 3/0
[Ci fib]
+15.2 +10.4 73 +15 +15 по сезону 1008.4 987.1
03 13.06 ЮВ 4 10 км 8/0
[Ci]
+15.8 +9.2 65 +15 +15 по сезону 1008.5 987.3 +14.7
06 13.06 ЮВ 1 10 км 10/0
[Ci fib]
+25.0 +6.7 31 +25 +34 комфорт 1006.8 986.2 +14.7
09 13.06 З 2 10 км 4/0
[Ci fib]
+29.2 +4.0 20 +27 +45 жарко 1006.3 986.0
12 13.06 З 6
{11}
10 км 4/0
[Ci sp]
+27.3 +7.2 28 +27 +32 жарко 1006.1 985.7
15 13.06 З 5 10 км 4/0
[Ci sp]
+25.9 +8.9 34 +26 +28 жарко 1005.8 985.3
18 13.06 З 1 10 км 3/0
[Ci sp]
+20.7 +9.9 50 +23 +23 комфорт 1006.5 985.7 +31.2
21 13.06 В 1 10 км 4/0
[Ci fib]
+18.9 +9.7 55 +21 +21 комфорт 1006.8 985.8
00 14.06 ЮВ 2 10 км ясно +18.2 +10.1 59 +19 +19 тепло 1006.8 985.8
03 14.06 В 2 10 км 1/0
[Ci fib]
+16.7 +9.6 63 +17 +17 по сезону 1007.0 985.9 +15.0
06 14.06 СВ 4 10 км 1/0
[Ci fib]
+27.5 +8.4 30 +27 +33 жарко 1005.9 985.5 +15.0
09 14.06 ЮВ 4 10 км ясно +31.6 +9.2 25 +31 +43 жарко 1005.3 985.2
12 14.06 З 6 10 км 3/0
[Ci fib]
+32.2 +10.9 27 +32 +37 жарко 1004.3 984.3
15 14.06 З 6
{11}
10 км 3/0
[Ci fib]
+28.2 +9.5 31 +28 +30 жарко 1004.5 984.2
18 14.06 ЮЗ 3 10 км 3/0
[Ci fib]
+22.3 +10.1 46 +24 +24 комфорт 1005.6 984.9 +33.4
21 14.06 ЮВ 3 10 км 6/0
[Ci fib]
+20.4 +10.5 53 +22 +22 комфорт 1006.0 985.2
00 15.06 В 3 10 км ясно +19.6 +11.1 58 +21 +21 комфорт 1005.1 984.2
03 15.06 В 1 10 км 6/0
[Ac trans Ci fib]
+20.2 +11.9 59 +23 +24 комфорт 1004.6 983.8 +18.2
06 15.06 Ю 1 10 км 10/0
[Ac cast Cc]
+25.1 +13.3 48 +27 +34 жарко 1004.7 984.2 +18.2
09 15.06 СЗ 2 10 км 10/0
[Ac cast Ci fib]
+30.2 +13.1 35 +31 +42 жарко 1004.5 984.4
12 15.06 З 6 10 км 9/3 1000 м
[Cb calv Ac trans]
+28.6 +14.1 41 +31 +33 жарко 1004.8 984.6
15 15.06 З 5 10 км 10/0
[Ac lent]
+26.0 +16.8 57 +30 +30 душно 1005.2 984.8
18 15.06 Ю 2 10 км 8/0
[Ac trans Ci fib]
+22.2 +18.4 79 +27 +27 душно 1005.9 985.2 +30.6
21 15.06 Ю 3 10 км 6/0
[Ac trans]
+20.3 +17.7 85 +24 +24 комфорт 1006.7 985.9
00 16.06 Ю 2 10 км 10/0
[Ac und]
+20.1 +18.2 89 +24 +24 комфорт 1007.0 986.2
03 16.06 Ю 2 10 км 10/0
[Ac trans Ci sp]
+19.4 +17.4 88 +22 +22 комфорт 1007.2 986.3 +18.9
06 16.06 В 4 10 км 10/0
[Ac und]
+24.0 +17.3 66 +28 +30 душно 1007.4 986.8 +18.9
09 16.06 Ю 2 10 км 10/0
[Ac trans Ci sp]
+27.7 +16.0 49 +31 +41 душно 1007.0 986.7
12 16.06 З 5 10 км гроза без осадков 10/4 1200 м
[Cb cap Ac trans Ci fib]
+28.3 +16.9 50 +32 +34 душно 1007.1 986.8
15 16.06 З 4 10 км {гроза} 10/3 1000 м
[Cb calv Ac trans Ci ing]
+25.1 +16.5 59 +29 +30 душно 1007.2 986.7
18 16.06 Ю 2 10 км {гроза} 10/0
[Ci sp]
+21.2 +16.0 72 +25 +25 комфорт 1007.5 986.7 +29.1
21 16.06 Ю 2 10 км 10/0
[Ac trans Ci fib]
+19.4 +18.2 93 +22 +22 комфорт 1008.2 987.3
00 17.06 В 3 10 км 10/0
[Ac trans Ci fib]
+18.5 +16.8 90 +19 +19 тепло 1008.0 987.0
03 17.06 СВ 4 10 км 10/0
[Ci sp]
+18.0 +15.6 86 +18 +18 по сезону 1008.1 987.1 +16.9
06 17.06 В 9-12
{12}
10 км 10/0
[Ac trans Cc]
+25.3 +15.6 55 +28 +29 жарко 1007.3 986.8 +16.9
09 17.06 СВ 10-13
{13}
10 км 10/1 1000 м
[Cb calv Ac und]
+27.3 +14.0 44 +29 +30 жарко 1007.5 987.1
12 17.06 СВ 6-10
{13}
10 км слабый ливневой дождь 10/5 1000 м
[Cb calv Ac und]
+24.1 +17.1 65 +28 +29 душно 1007.7 987.1
15 17.06 В 5
{11}
10 км в посл. час ливневой дождь 10/4 1080 м
[Cb calv Ac und]
+22.0 +18.8 82 +27 +27 душно 1007.7 987.0 0.3
18 17.06 СВ 4
{11}
10 км {ливн. осадки} 10/1 1000 м
[Cb calv Ac trans Ci fib]
+20.7 +15.3 71 +24 +24 комфорт 1008.3 987.5 +27.6 0.3
21 17.06 СВ 3 10 км 10/0
[Ac trans Ci fib]
+18.1 +16.6 91 +18 +18 тепло 1008.6 987.6
00 18.06 СВ 3 10 км 10/0
[Ac und]
+17.5 +16.0 91 +17 +17 тепло 1008.1 987.0
03 18.06 СВ 4 10 км 9/0
[Ac trans]
+18.0 +16.9 93 +18 +18 по сезону 1007.0 986.0 +17.4
06 18.06 СВ 8-11
{11}
10 км 8/0
[Ac trans]
+23.7 +16.0 62 +27 +28 жарко 1007.0 986.4 +17.4
15 18.06 В 7-12
{16}
10 км 6/0
[Ac trans Ci fib]
+26.4 +6.4 28 +26 +27 жарко 1008.1 987.6

 

Местоположение метеостанции Симферополь (Крым, Россия): широта 45.03 долгота 33.97 высота над уровнем моря 181 м.

В архиве по умолчанию представлена погода в Симферополе за последнюю неделю. Архивные данные за месяц целиком и за предыдущие месяцы, начиная с января 2011 года, Вы можете получить, выбрав интересующий диапазон дат из раскрывающегося списка и нажав кнопку "Ввод!".


*Определитесь, кто Вы:
робот инопланетянин человек

Внимание! Время в таблицах - всемирное. Для получения местного времени необходимо прибавить поправку, которая в Симферополе равна 3 ч.

Смотрите также архив погоды в соседних городах и на ближайших метеорологических станциях:

Погода в Симферополе город (Крым, Россия) (15 км)
Погода в Почтовом (Крым, Россия) (22 км)
Погода в Ангарском Перевале (Крым, Россия) (43 км)
Погода в Белогорске (Крым, Россия) (50 км)
Погода в Евпатории (Крым, Россия) (50 км)
Погода в Алуште (Крым, Россия) (52 км)
Погода в Севастополе (город Севастополь, Россия) (57 км)
Погода в Клепинино (Крым, Россия) (58 км)
Погода в Никитском саду (Крым, Россия) (61 км)
Погода в Ай-Петри (Крым, Россия) (63 км)

Пояснения к столбцам:

Ветер - указаны скорость ветра в м/с - средняя за 10 мин, порывы в срок и между сроками (в фигурных скобках) и направление, откуда дует ветер: С - северный, СВ - северо-восточный, В - восточный, ЮВ - юго-восточный, Ю - южный, ЮЗ - юго-западный, З - западный, СЗ - северо-западный.
Видимость - горизонтальная дальность видимости в метрах или километрах. При видимости от 1 до 10 км при отсутствии осадков обычно наблюдается дымка, при ухудшении видимости до 1 км и менее - туман. В сухую погоду видимость может ухудшаться дымом, пылью или мглою.
Явления - указаны атмосферные явления, наблюдавшиеся в срок или в последний час перед сроком; фигурными скобками обозначены явления, наблюдавшиеся между сроками (за 1-3 часа до срока); квадратными скобками обозначены град или гололедные отложения с указанием их диаметра в мм.
Облачность - указаны через наклонную черту общая и нижняя облачность в баллах и высота нижней границы облаков в метрах; квадратными скобками обозначены формы облаков: Ci - перистые, Cs - перисто-слоистые, Cc - перисто-кучевые, Ac - высококучевые, As - высокослоистые, Sc - слоисто-кучевые, Ns - слоисто-дождевые, Cu - кучевые, Cb - кучево-дождевые. Подробнее классификацию облаков см. в Атласе облаков (PDF).
T - Температура воздуха - температура, измеренная на высоте 2 м над землей.
Td - Температура точки росы - температура, при понижении до которой содержащийся в воздухе водяной пар достигнет насыщения.
f - Относительная влажность воздуха - влажноcть воздуха, измеренная на высоте 2 м над землей.
Te - Эффективная температура - температура, которую ощущает одетый по сезону человек в тени. Характеристика душности погоды. При расчете учитывается влияние влажности воздуха и скорости ветра на теплоощущения человека.
Tes - Эффективная температура на солнце - температура, которую ощущает человек, с поправкой на солнечный нагрев. Характеристика знойности погоды. Зависит от высоты солнца над горизонтом, облачности и скорости ветра. Ночью, в пасмурную погоду, а также при ветре 12 м/с и более поправка равна нулю.
P - Атмосферное давление - приведенное к уровню моря атмосферное давление.
Po - Атмосферное давление - измеренное на уровне метеостанции атмосферное давление.
Tmin - Минимальная температура - минимум температуры воздуха на высоте 2 м над землей.
Tmax - Максимальная температура - максимум температуры воздуха на высоте 2 м над землей.
R - Количество осадков - Количество выпавших осадков за период времени, мм. При наведении курсора мыши на число - период времени, за который выпало указанное количество осадков.
R24 - Количество осадков - Количество выпавших осадков за 24 часа, мм.
S - Снежный покров - Высота снежного покрова, см. При наведении курсора мыши на число - состояние снежного покрова и степень покрытия местности в баллах.